CZ-6A DEB, 56642

Orbit data source: Space-Track

CZ-6A DEB, 56642 is space debris in SSO originally from a launch on Fri, 11 Nov 2022 UTC launched from the Taiyaun Space Center, China (TSC). Debris objects in space refer to the collection of defunct objects orbiting the Earth. Examples of debris include non-operational satellites, rocket bodies, and fragments generated from explosions, collisions, or faulty payload assembly.

Loading next visibility...
Identifier
56642, 2022-151AFS
Orbit
SSO
Country
Flag of CNCN / PRC
Related business
Manufacturer
SAST
Mission
Spacecraft
Bus & Motor
Unknown
Mass
Unknown
Launch date (UTC)
2022-11-11 (4 years ago)
Launch vehicle
Unknown
Launch site
Taiyaun Space Center, China (TSC)
Object type
Payload
Rocket body
Debris
Shape & HBR
Unknown shape, 0.1 m
Radar Cross Section
Small (<0.1 m²)

Expand to show TLE details & history
Last TLE update: 4 days ago

TLE from 4 days ago
0 CZ-6A DEB
1 56642U 22151AFS 26190.66510153  .00000156  00000-0  14156-3 0  9991
2 56642  98.9149 156.6737 0128153  25.5898 335.1533 13.93346668163054
Epoch: 2026-07-09T15:57Z
TLE epoch observation values (Epoch: 2026-07-09T15:57:44.772Z)
Latitude
0.00002°
Longitude
-10.36662°
Altitude
835.162 km
Speed
7.478 km/s
True Right ascension
10h 26m 41s
True Declination
0° 00' 00"
Sunlit
Object was in daylight at epoch
Visualization orbit readout
Latitude
Unknown
Longitude
Unknown
Altitude
Unknown
Speed
Unknown
Apparent Right ascension
Unknown
Apparent Declination
Unknown
Sunlit
N/A
Visualization observer readout
Local Sidereal Time
22:18:09
Azimuth
Unknown
Elevation
Unknown
Doppler factor
Unknown
Orbital elements
Apogee altitude
1,007.582 km
Perigee altitude
820.677 km
Semi-major axis
7,292.267 km
Eccentricity
0.01282
Inclination
98.9149°
RAAN
156.6737°
Arg. of periapsis
25.5898°
True anomaly
334.52715°
Mean anomaly
335.1533°
Eccentric anomaly
334.84114°
Mean motion
3.48537 °/min
Orbital period
103.29 mins
BSTAR
0.00014156
Loading maneuver chart data...
Computing Atmospheric mass density...
Loading historical data...
Loading historical data...
Loading historical data...
Loading historical data...
Loading historical data...
Loading historical data...
Loading historical data...

Documentation

Showing up to 5 results
|